Regional Weather Roundup
Issued by NWS Northern Indiana

Home | Current Version | Previous Version | Graphics & Text | Print | Product List | Glossary On
Versions: 1 2 3 4 5 6 7 8 9 10 11 12 13 14 15 16 17 18 19 20 21 22 23 24 25 26 27 28 29 30 31 32 33 34 35 36 37 38 39 40 41 42 43 44 45 46 47 48 49 50
000
ASUS43 KIWX 292010
RWRIWX

KIWX WEATHER ROUNDUP
NATIONAL WEATHER SERVICE NORTHERN INDIANA
400 PM EDT FRI APR 29 2016

NOTE: "FAIR" INDICATES FEW OR NO CLOUDS BELOW 12,000 FEET WITH NO
SIGNIFICANT WEATHER AND/OR OBSTRUCTIONS TO VISIBILITY.

* THESE STATIONS ARE NOT UNDER NWS QUALITY CONTROL. THEY ALSO MAY NOT
  REPORT WEATHER SUCH AS PRECIPITATION OR FOG.

INZ001>027-292100-
NORTHERN INDIANA

CITY           SKY/WX    TMP DP  RH WIND       PRES   REMARKS
GARY*          CLOUDY    46  45  93 N12       30.12S
VALPARAISO     CLOUDY    47  41  80 NW8       30.09S
MICHIGAN CITY* CLOUDY    43  43 100 NW6       30.10S FOG
LAPORTE*       CLOUDY    48  47  94 NW9       30.09S FOG
KNOX*          CLOUDY    50  39  66 NW8G17    30.08S
SOUTH BEND     CLOUDY    50  44  80 NW8       30.07F
ELKHART*       CLOUDY    54  48  82 CALM      30.07F
GOSHEN         CLOUDY    53  45  74 E8        30.05F
MONTICELLO*    CLOUDY    53  42  66 NW3       30.06S
LOGANSPORT*    CLOUDY    54  45  71 N3        30.07S
ROCHESTER*     CLOUDY    55  46  71 CALM      30.07S
WARSAW*        CLOUDY    52  45  76 E3        30.06S
ANGOLA*        CLOUDY    54  43  66 CALM      30.06S
FORT WAYNE     CLOUDY    53  44  71 CALM      30.08R
HUNTINGTON*    CLOUDY   N/A N/A N/A N3        30.06F
PERU/GRISSOM   CLOUDY    56  47  70 VRB3      30.05F
MARION*        PTSUNNY   56  46  68 CALM      30.07R

$$
INZ028>050-292100-
CENTRAL INDIANA

CITY           SKY/WX    TMP DP  RH WIND       PRES   REMARKS
LAFAYETTE      CLOUDY    56  46  69 N3        30.06S
KOKOMO*        CLOUDY    57  46  67 N8        30.06R
MUNCIE*        CLOUDY    60  48  64 N8        30.06R
INDIANAPOLIS   CLOUDY    62  45  53 NW3       30.04R

$$
MIZ043>046-050>051-056>058-064>065-071>073-077>080-292100-
SOUTHWEST LOWER MICHIGAN

CITY           SKY/WX    TMP DP  RH WIND       PRES   REMARKS
BATTLE CREEK   PTSUNNY   53  39  59 NE10G17   30.07F
BENTON HARBOR  CLOUDY    48  42  80 NW6       30.09R
COLDWATER*     CLOUDY    54  42  63 N3        30.06S
HILLSDALE*     CLOUDY    53  41  64 N6        30.05F
HOLLAND        MOSUNNY   54  41  61 NE8       30.09R
GRAND RAPIDS   PTSUNNY   51  39  63 E8        30.10S
KALAMAZOO      CLOUDY    53  39  59 CALM      30.08F
STURGIS*       CLOUDY    52  42  70 CALM      30.06S
THREE RIVERS*  CLOUDY    52  43  70 CALM      30.08R

$$
OHZ001>008-015>018-024>025-292100-
NORTHWEST OHIO

CITY           SKY/WX    TMP DP  RH WIND       PRES   REMARKS
WAUSEON*         N/A     55 N/A N/A NE8       30.05F
DEFIANCE       CLOUDY    57  41  55 VRB3      30.07S
FINDLAY        CLOUDY    55  41  59 VRB3      30.05F
TOLEDO EXPRESS CLOUDY    55  40  56 NE12      30.05F
TOLEDO METCALF MOSUNNY   52  40  63 NE15      30.08F
LIMA           CLOUDY    52  46  80 CALM      30.05F

$$
AND FOR LAKE MICHIGAN COASTAL AND OPEN LAKE BUOY OBSERVATIONS

STATION/POSITION TEMP    WIND        PRES    VSBY  WAVE
                 AIR SEA DIR/SP/G                  HT/PER
                 (F)     (DEG/KT/KT) (MB)    (MI)  (FT/S)
CALUMET HARBOR    43     340/ 11/ 14 1018.9F
MICHIGAN CITY     42     310/  8/  9   N/A
BURNS HARBOR      42     340/  8/ 10 1020.0F
SAINT JOSEPH      46     350/  6/ 10 1019.3R
SOUTH LAKE BUOY   40 40  360/  8/ 10 1020.0R         1/ 3
4 MI NW BRIDGMAN  43 46                N/A           2/ 3

$$
&&




USA.gov is the U.S. government's official web portal to all federal, state and local government web resources and services.